This demonstration page uses our WeatherBlox Daily Observations layout. Learn more.

Left ArrowRight Arrow

Hourly Observations for January 20, 2019

Temp ( °F °C ) Dew Point ( °F °C ) Humidity (%) Winds ( mph kmh ) Pressure ( in mb ) Visibility ( mi km ) Precip ( " mm )
12:26 am 00:26 Cloudy 50 10 46 7.8 86 86 WNW 22 35 29.62 1003 10 16 0.00 0.00
12:42 am 00:42 Cloudy 47 8.3 43 6.1 86 86 WNW 18 30 29.65 1004 10 16 0.00 0.00
12:53 am 00:53 Cloudy 46 7.8 43 6.1 89 89 WNW 17 28 29.64 1004 10 16 0.00 0.00
1:53 am 01:53 Cloudy 42 5.6 38 3.3 85 85 W 10 17 29.67 1005 10 16 0.00 0.03
2:38 am 02:38 Cloudy 40 4.4 33 0.6 77 77 WNW 16 26 29.74 1007 10 16 0.00 0.03
2:53 am 02:53 Cloudy 39 3.9 32 0 76 76 WNW 13 20 29.73 1007 10 16 0.00 0.03
3:38 am 03:38 Cloudy 37 2.8 32 0 82 82 W 12 19 29.77 1008 10 16 0.00 0.03
3:53 am 03:53 Cloudy 37 2.8 32 0 82 82 WNW 20 31 29.75 1008 10 16 0.00 0.03
4:53 am 04:53 Cloudy 35 1.7 30 -1.1 82 82 W 15 24 29.77 1008 10 16 0.00 0.00
5:53 am 05:53 Cloudy 35 1.7 28 -2.2 76 76 WNW 15 24 29.79 1009 10 16 0.00 0.00
6:53 am 06:53 Cloudy 33 0.6 28 -2.2 82 82 WNW 17 28 29.83 1010 10 16 0.00 0.00
7:53 am 07:53 Cloudy 33 0.6 27 -2.8 78 78 WNW 18 30 29.89 1012 10 16 0.00 0.00
8:53 am 08:53 Cloudy 33 0.6 26 -3.3 75 75 NW 17 28 29.91 1013 10 16 0.00 0.00
9:53 am 09:53 Cloudy 33 0.6 25 -3.9 72 72 NW 16 26 29.95 1014 10 16 0.00 0.00
10:53 am 10:53 Cloudy 33 0.6 26 -3.3 75 75 NNW 18 30 30.00 1016 10 16 0.00 0.00
11:53 am 11:53 Cloudy 33 0.6 26 -3.3 75 75 NNW 17 28 30.02 1017 10 16 0.00 0.00
12:53 pm 12:53 Cloudy 35 1.7 26 -3.3 70 70 NW 14 22 30.03 1017 10 16 0.00 0.00
1:53 pm 13:53 Mostly Cloudy 34 1.1 25 -3.9 70 70 NW 14 22 30.03 1017 10 16 0.00 0.00
2:25 pm 14:25 Mostly Cloudy 37 2.8 24 -4.4 59 59 NW 14 22 30.06 1018 10 16 0.00 0.00
2:53 pm 14:53 Mostly Sunny 37 2.8 24 -4.4 59 59 NW 12 19 30.03 1017 10 16 0.00 0.00
3:53 pm 15:53 Sunny 39 3.9 22 -5.6 50 50 NNW 15 24 30.06 1018 10 16 0.00 0.00
4:53 pm 16:53 Sunny 37 2.8 20 -6.7 50 50 NNW 15 24 30.08 1019 10 16 0.00 0.00
5:53 pm 17:53 Sunny 35 1.7 19 -7.2 52 52 NW 9 15 30.11 1020 10 16 0.00 0.00
6:53 pm 18:53 Clear 34 1.1 18 -7.8 52 52 NW 13 20 30.15 1021 10 16 0.00 0.00
7:53 pm 19:53 Clear 32 0 19 -7.2 59 59 WNW 8 13 30.17 1022 10 16 0.00 0.00
8:53 pm 20:53 Clear 31 -0.6 20 -6.7 64 64 NW 10 17 30.20 1023 10 16 0.00 0.00
9:53 pm 21:53 Clear 30 -1.1 19 -7.2 64 64 WNW 9 15 30.20 1023 10 16 0.00 0.00
10:53 pm 22:53 Clear 29 -1.7 17 -8.3 61 61 NW 9 15 30.22 1024 10 16 0.00 0.00
11:53 pm 23:53 Clear 28 -2.2 15 -9.4 58 58 NNW 14 22 30.23 1024 10 16 0.00 0.00

Powered by AerisWeather